Regional Weather Roundup
Issued by NWS

Home | Current Version | Previous Version | Graphics & Text | Print | Product List | Glossary On
Versions: 1 2 3 4 5 6 7 8 9 10 11 12 13 14 15 16 17 18 19 20 21 22 23 24 25 26 27
000
ASUS45 KSLC 202210
RWRUT

UTAH REGIONAL WEATHER ROUNDUP
NATIONAL WEATHER SERVICE SALT LAKE CITY UT
300 PM MST SAT JAN 20 2018

UTZ001>011-023>025-202300-

NORTHERN UTAH

CITY           SKY/WX    TMP DP  RH WIND       PRES   REMARKS
BRIGHAM CITY   CLOUDY    34  25  70 N8G18     29.88R WCI  27
HILL AFB       CLOUDY    32  27  80 N7        29.84R WCI  26
LOGAN          CLOUDY    34  26  72 N9        29.88R WCI  27
OGDEN          CLOUDY    33  25  72 N10       29.84R WCI  25
SALT LAKE CITY CLOUDY    35  26  69 NW15      29.85F WCI  25
TOOELE VALLEY  CLOUDY    30  30 100 SE3       29.88F
WENDOVER       PTSUNNY   37  19  48 NW16G24   29.92S WCI  28
HEBER CITY     CLOUDY    32  21  64 N10       29.76F WCI  24
WEST JORDAN    CLOUDY    30  25  82 NW14G22   29.85F WCI  20

$$

UTZ011>015-024>027-202300-

CENTRAL/NORTHEAST UTAH

CITY           SKY/WX    TMP DP  RH WIND       PRES   REMARKS
PROVO AIRPORT  LGT SNOW  31  27  85 NW18      29.84S FOG     WCI  19
MOAB/CANYONLAN CLOUDY    49  34  56 SW16      29.65S
DELTA          CLOUDY    30  28  93 N13       29.84R VSB 1   WCI  20
PRICE          SNOW      30  30 100 N10       29.66F VSB 1/2 WCI  21
RICHFIELD      CLOUDY    30  30 100 CALM      29.79S
ROOSEVELT      LGT SNOW  34  32  93 W7        29.70S WCI  28
VERNAL         CLOUDY    34  31  88 NW6       29.67F WCI  29

$$

UTZ013>016-019>022-027-202300-

SOUTHERN UTAH

CITY           SKY/WX    TMP DP  RH WIND       PRES   REMARKS
BRYCE CANYON   MOSUNNY   32  22  66 S13       29.70R WCI  22
CEDAR CITY     LGT SNOW  28  26  92 N7        29.80R VSB 3/4 WCI  21
MILFORD        FLURRIES  28  25  88 N18       29.83R WCI  15
ST GEORGE      LGT RAIN  40  37  89 S6        29.84R
HANKSVILLE     CLOUDY    45  32  61 SW23G31   29.71R
KANAB          CLOUDY    41  32  70 SW8G15    29.79S
BLANDING         N/A     45  32  61 S18G28    29.78F

$$

REGIONAL REPORTS     COLORADO/ARIZONA

CITY           SKY/WX    TMP DP  RH WIND       PRES   REMARKS
CRAIG, CO      LGT RAIN  36  31  82 W6        29.70F WCI  31
GRAND JUNCTION CLOUDY    47  34  60 NW18      29.70R
RIFLE, CO      LGT RAIN  39  36  89 E7        29.69F WCI  34
MONTROSE, CO   CLOUDY    51  30  44 SW10      29.69F
CORTEZ, CO     LGT RAIN  44  31  60 W9        29.76F
COLORADO CITY    N/A     41  34  75 W17G23    29.81R
PAGE, AZ       MOSUNNY   51  28  41 SW8       29.71S
GRAND CANYON   PTSUNNY   35  22  58 SW14      29.77F WCI  26
KINGMAN, AZ    PTSUNNY   49  24  37 SW24      29.83S
FLAGSTAFF, AZ  SNOW      28  26  92 SW12      29.80S VSB 1/4 WCI  18

$$

REGIONAL REPORTS    NEVADA/IDAHO/WYOMING

CITY           SKY/WX    TMP DP  RH WIND       PRES   REMARKS
LAS VEGAS, NV  LGT RAIN  50  32  50 NW13G29   29.87R
ELY, NY        CLOUDY    23  17  78 N14       29.89R WCI  11
ELKO, NV       PTSUNNY   35  18  49 NW16      29.97R WCI  25
POCATELLO, ID  MOSUNNY   36  23  59 W6        29.93F WCI  31
BURLEY, ID     MOSUNNY   35  21  56 W9        29.95S WCI  28
FORT BRIDGER,  LGT SNOW  25  25  99 CALM      29.79R VSB 3/4
EVANSTON, WY   FOG       21  19  92 N15       29.77R VSB 1   WCI   8
ROCK SPRINGS,  LGT SNOW  27  23  85 NW7       29.73S VSB 3/4 WCI  19

$$




USA.gov is the U.S. government's official web portal to all federal, state and local government web resources and services.